Location: Maccacari
(45.1333°N, 11.1333°E)
Time: 01:26:26
(UTC+00:00)

A-11 Canister half - Pass Details

Date: 21 January 2021
Orbit: 1525 x 1684 km, 47.3° (Epoch: 07 March)

Event Time Altitude Azimuth Distance (km) Brightness Sun altitude
Rises 19:41:30 0° 290° (WNW) 4,761 12.5 -37.4°
Reaches altitude 10° 19:44:32 10° 289° (WNW) 3,795 11.8 -37.9°
Enters shadow 19:53:38 73° 232° (SW) 1,690 9.1 -39.5°
Maximum altitude 19:54:11 74° 207° (SSW) 1,680 - -39.6°
Drops below altitude 10° 20:04:08 10° 124° (SE) 3,908 - -41.3°
Sets 20:07:19 0° 123° (ESE) 4,908 - -41.8°
